| time (UTC) | temp C | wind direction | speed KPH | gust KPH | rain 1hr cm | rain 24hr cm | rain mn cm | humidity % | barometer mb |
| 20260507171513 | 19 | 69 | 1.6 | 9.7 | 0.00 | 0.00 | 0.00 | 43 | 1011.4 |
| 20260507171205 | 20 | 101 | 3.2 | 16.1 | 0.00 | 0.00 | 0.00 | 43 | 1011.1 |
| 20260507170206 | 20 | 80 | 6.4 | 17.7 | 0.00 | 0.00 | 0.00 | 40 | 1011.0 |
| 20260507170013 | 19 | 121 | 9.7 | 16.1 | 0.00 | 0.00 | 0.00 | 39 | 1011.4 |
| 20260507165706 | 20 | 111 | 6.4 | 17.7 | 0.00 | 0.00 | 0.00 | 41 | 1011.0 |
| 20260507165204 | 20 | 77 | 8.0 | 17.7 | 0.00 | 0.00 | 0.00 | 40 | 1011.1 |
| 20260507164704 | 20 | 75 | 6.4 | 17.7 | 0.00 | 0.00 | 0.00 | 40 | 1011.0 |
| 20260507164510 | 20 | 132 | 6.4 | 17.7 | 0.00 | 0.00 | 0.00 | 40 | 1011.3 |
| 20260507164205 | 20 | 126 | 4.8 | 17.7 | 0.00 | 0.00 | 0.00 | 41 | 1011.0 |
| 20260507163705 | 20 | 235 | 4.8 | 17.7 | 0.00 | 0.00 | 0.00 | 43 | 1011.1 |
| 20260507163206 | 20 | 11 | 6.4 | 17.7 | 0.00 | 0.00 | 0.00 | 42 | 1011.1 |
| 20260507163010 | 20 | 62 | 4.8 | 17.7 | 0.00 | 0.00 | 0.00 | 42 | 1011.4 |
| 20260507162706 | 20 | 127 | 4.8 | 17.7 | 0.00 | 0.00 | 0.00 | 43 | 1011.0 |
| 20260507161705 | 20 | 103 | 3.2 | 16.1 | 0.00 | 0.00 | 0.00 | 42 | 1011.1 |
| 20260507161518 | 20 | 53 | 3.2 | 12.9 | 0.00 | 0.00 | 0.00 | 43 | 1011.5 |
| 20260507161205 | 20 | 108 | 4.8 | 19.3 | 0.00 | 0.00 | 0.00 | 42 | 1011.1 |
| 20260507160705 | 20 | 137 | 4.8 | 19.3 | 0.00 | 0.00 | 0.00 | 42 | 1011.1 |
| 20260507160008 | 20 | 126 | 4.8 | 19.3 | 0.00 | 0.00 | 0.00 | 41 | 1011.5 |
| 20260507155705 | 20 | 182 | 4.8 | 27.4 | 0.00 | 0.00 | 0.00 | 42 | 1011.2 |
| 20260507155205 | 21 | 134 | 4.8 | 27.4 | 0.00 | 0.00 | 0.00 | 41 | 1011.2 |
| 20260507154705 | 21 | 90 | 6.4 | 27.4 | 0.00 | 0.00 | 0.00 | 42 | 1011.3 |
| 20260507154508 | 20 | 76 | 6.4 | 27.4 | 0.00 | 0.00 | 0.00 | 41 | 1011.6 |
| 20260507154206 | 21 | 101 | 4.8 | 17.7 | 0.00 | 0.00 | 0.00 | 41 | 1011.2 |
| 20260507153205 | 21 | 64 | 6.4 | 14.5 | 0.00 | 0.00 | 0.00 | 39 | 1011.1 |
| 20260507153008 | 21 | 128 | 3.2 | 14.5 | 0.00 | 0.00 | 0.00 | 39 | 1011.5 |
| 20260507152705 | 21 | 129 | 6.4 | 14.5 | 0.00 | 0.00 | 0.00 | 39 | 1011.1 |
| 20260507152205 | 21 | 142 | 4.8 | 12.9 | 0.00 | 0.00 | 0.00 | 38 | 1011.2 |
| 20260507151705 | 21 | 110 | 4.8 | 12.9 | 0.00 | 0.00 | 0.00 | 39 | 1011.1 |
| 20260507151507 | 21 | 109 | 4.8 | 12.9 | 0.00 | 0.00 | 0.00 | 38 | 1011.4 |
| 20260507151205 | 21 | 180 | 4.8 | 14.5 | 0.00 | 0.00 | 0.00 | 38 | 1011.1 |
| 20260507150705 | 21 | 123 | 4.8 | 20.9 | 0.00 | 0.00 | 0.00 | 38 | 1011.2 |
| 20260507150006 | 21 | 119 | 4.8 | 20.9 | 0.00 | 0.00 | 0.00 | 38 | 1011.6 |
| 20260507145705 | 22 | 91 | 4.8 | 16.1 | 0.00 | 0.00 | 0.00 | 38 | 1011.3 |
| 20260507145206 | 22 | 233 | 3.2 | 16.1 | 0.00 | 0.00 | 0.00 | 38 | 1011.3 |
| 20260507144705 | 22 | 96 | 4.8 | 11.3 | 0.00 | 0.00 | 0.00 | 39 | 1011.4 |
| 20260507144504 | 22 | 80 | 3.2 | 16.1 | 0.00 | 0.00 | 0.00 | 39 | 1011.7 |
| 20260507144205 | 22 | 296 | 3.2 | 12.9 | 0.00 | 0.00 | 0.00 | 38 | 1011.3 |
| 20260507143705 | 22 | 26 | 3.2 | 12.9 | 0.00 | 0.00 | 0.00 | 38 | 1011.3 |
| 20260507143206 | 22 | 142 | 3.2 | 12.9 | 0.00 | 0.00 | 0.00 | 37 | 1011.3 |
| 20260507143006 | 22 | 121 | 3.2 | 12.9 | 0.00 | 0.00 | 0.00 | 37 | 1011.8 |
| 20260507142705 | 22 | 117 | 4.8 | 12.9 | 0.00 | 0.00 | 0.00 | 37 | 1011.4 |
| 20260507142206 | 22 | 99 | 4.8 | 11.3 | 0.00 | 0.00 | 0.00 | 37 | 1011.4 |
| 20260507141706 | 22 | 135 | 3.2 | 14.5 | 0.00 | 0.00 | 0.00 | 38 | 1011.4 |
| 20260507141502 | 22 | 202 | 3.2 | 9.7 | 0.00 | 0.00 | 0.00 | 38 | 1011.8 |
| 20260507141206 | 22 | 62 | 4.8 | 14.5 | 0.00 | 0.00 | 0.00 | 36 | 1011.5 |
| 20260507140705 | 22 | 115 | 6.4 | 14.5 | 0.00 | 0.00 | 0.00 | 37 | 1011.6 |
| 20260507140206 | 22 | 143 | 6.4 | 14.5 | 0.00 | 0.00 | 0.00 | 36 | 1011.7 |
| 20260507140004 | 22 | 136 | 4.8 | 14.5 | 0.00 | 0.00 | 0.00 | 35 | 1012.0 |
| 20260507135705 | 22 | 140 | 6.4 | 19.3 | 0.00 | 0.00 | 0.00 | 35 | 1011.7 |
| 20260507135206 | 22 | 91 | 6.4 | 19.3 | 0.00 | 0.00 | 0.00 | 35 | 1011.8 |
| 20260507134706 | 22 | 116 | 6.4 | 19.3 | 0.00 | 0.00 | 0.00 | 35 | 1011.8 |
| 20260507134600 | 22 | 76 | 6.4 | 19.3 | 0.00 | 0.00 | 0.00 | 35 | 1012.1 |
| 20260507134205 | 23 | 119 | 4.8 | 9.7 | 0.00 | 0.00 | 0.00 | 35 | 1011.8 |
| 20260507133705 | 23 | 203 | 3.2 | 9.7 | 0.00 | 0.00 | 0.00 | 35 | 1011.8 |
| 20260507133205 | 23 | 317 | 3.2 | 14.5 | 0.00 | 0.00 | 0.00 | 35 | 1011.9 |
| 20260507133100 | 23 | 57 | 3.2 | 8.0 | 0.00 | 0.00 | 0.00 | 35 | 1012.2 |
| 20260507132706 | 23 | 116 | 3.2 | 14.5 | 0.00 | 0.00 | 0.00 | 36 | 1011.9 |
| 20260507132206 | 23 | 54 | 3.2 | 14.5 | 0.00 | 0.00 | 0.00 | 34 | 1012.0 |
| 20260507131705 | 23 | 286 | 4.8 | 14.5 | 0.00 | 0.00 | 0.00 | 34 | 1012.1 |
| 20260507131558 | 23 | 153 | 4.8 | 14.5 | 0.00 | 0.00 | 0.00 | 35 | 1012.4 |
| 20260507131205 | 23 | 169 | 4.8 | 14.5 | 0.00 | 0.00 | 0.00 | 35 | 1012.1 |
| 20260507130705 | 23 | 115 | 3.2 | 14.5 | 0.00 | 0.00 | 0.00 | 34 | 1012.0 |
| 20260507130206 | 23 | 66 | 3.2 | 14.5 | 0.00 | 0.00 | 0.00 | 34 | 1012.1 |
| 20260507130109 | 23 | 103 | 3.2 | 14.5 | 0.00 | 0.00 | 0.00 | 35 | 1012.4 |
| 20260507125705 | 23 | 26 | 3.2 | 12.9 | 0.00 | 0.00 | 0.00 | 34 | 1012.1 |
| 20260507125205 | 23 | 71 | 3.2 | 9.7 | 0.00 | 0.00 | 0.00 | 34 | 1012.1 |
| 20260507124706 | 23 | 117 | 3.2 | 9.7 | 0.00 | 0.00 | 0.00 | 33 | 1012.1 |
| 20260507124603 | 23 | 19 | 1.6 | 9.7 | 0.00 | 0.00 | 0.00 | 32 | 1012.4 |
| 20260507123205 | 23 | 177 | 6.4 | 12.9 | 0.00 | 0.00 | 0.00 | 27 | 1012.2 |
| 20260507123056 | 22 | 107 | 3.2 | 11.3 | 0.00 | 0.00 | 0.00 | 29 | 1012.5 |
| 20260507122705 | 22 | 42 | 6.4 | 14.5 | 0.00 | 0.00 | 0.00 | 30 | 1012.1 |
| 20260507121705 | 22 | 109 | 4.8 | 16.1 | 0.00 | 0.00 | 0.00 | 30 | 1012.3 |
| 20260507121555 | 22 | 104 | 3.2 | 16.1 | 0.00 | 0.00 | 0.00 | 30 | 1012.6 |
| 20260507121206 | 22 | 20 | 8.0 | 16.1 | 0.00 | 0.00 | 0.00 | 30 | 1012.3 |
| 20260507120706 | 22 | 28 | 6.4 | 16.1 | 0.00 | 0.00 | 0.00 | 30 | 1012.4 |
| 20260507120052 | 22 | 115 | 4.8 | 14.5 | 0.00 | 0.00 | 0.00 | 29 | 1012.9 |
| 20260507115722 | 23 | 62 | 4.8 | 14.5 | 0.00 | 0.00 | 0.00 | 29 | 1012.5 |
| 20260507115206 | 23 | 132 | 4.8 | 12.9 | 0.00 | 0.00 | 0.00 | 28 | 1012.5 |
| 20260507114705 | 23 | 107 | 4.8 | 14.5 | 0.00 | 0.00 | 0.00 | 30 | 1012.6 |
| 20260507114557 | 22 | 118 | 3.2 | 12.9 | 0.00 | 0.00 | 0.00 | 31 | 1012.9 |
| 20260507113705 | 22 | 35 | 4.8 | 12.9 | 0.00 | 0.00 | 0.00 | 29 | 1012.7 |
| 20260507113205 | 23 | 78 | 6.4 | 14.5 | 0.00 | 0.00 | 0.00 | 28 | 1012.7 |
| 20260507113050 | 23 | 88 | 6.4 | 11.3 | 0.00 | 0.00 | 0.00 | 28 | 1013.1 |
| 20260507112706 | 23 | 97 | 6.4 | 14.5 | 0.00 | 0.00 | 0.00 | 28 | 1012.7 |
| 20260507112223 | 23 | 70 | 6.4 | 11.3 | 0.00 | 0.00 | 0.00 | 27 | 1012.8 |
| 20260507111705 | 25 | 96 | 4.8 | 11.3 | 0.00 | 0.00 | 0.00 | 26 | 1012.9 |
| 20260507111551 | 25 | 62 | 3.2 | 9.7 | 0.00 | 0.00 | 0.00 | 26 | 1013.2 |
| 20260507111205 | 26 | 97 | 3.2 | 14.5 | 0.00 | 0.00 | 0.00 | 27 | 1013.0 |
| 20260507110705 | 25 | 309 | 3.2 | 14.5 | 0.00 | 0.00 | 0.00 | 28 | 1013.0 |
| 20260507110205 | 25 | 355 | 4.8 | 14.5 | 0.00 | 0.00 | 0.00 | 28 | 1013.1 |
| 20260507110048 | 24 | 341 | 3.2 | 14.5 | 0.00 | 0.00 | 0.00 | 27 | 1013.4 |
| 20260507105705 | 25 | 0 | 4.8 | 12.9 | 0.00 | 0.00 | 0.00 | 27 | 1013.1 |
| 20260507105205 | 26 | 100 | 3.2 | 12.9 | 0.00 | 0.00 | 0.00 | 27 | 1013.0 |
| 20260507104705 | 26 | 58 | 4.8 | 12.9 | 0.00 | 0.00 | 0.00 | 24 | 1013.0 |
| 20260507104546 | 25 | 147 | 3.2 | 11.3 | 0.00 | 0.00 | 0.00 | 24 | 1013.3 |
| 20260507104205 | 26 | 252 | 4.8 | 12.9 | 0.00 | 0.00 | 0.00 | 25 | 1013.1 |
| 20260507103705 | 26 | 319 | 1.6 | 6.4 | 0.00 | 0.00 | 0.00 | 25 | 1013.1 |
| 20260507103206 | 26 | 196 | 3.2 | 6.4 | 0.00 | 0.00 | 0.00 | 22 | 1013.1 |
| 20260507103045 | 26 | 261 | 1.6 | 6.4 | 0.00 | 0.00 | 0.00 | 21 | 1013.4 |
| 20260507102705 | 27 | 292 | 3.2 | 14.5 | 0.00 | 0.00 | 0.00 | 23 | 1013.1 |
| 20260507102205 | 26 | 350 | 3.2 | 16.1 | 0.00 | 0.00 | 0.00 | 23 | 1013.1 |
| 20260507101705 | 26 | 334 | 6.4 | 16.1 | 0.00 | 0.00 | 0.00 | 25 | 1013.1 |
| 20260507101548 | 26 | 296 | 3.2 | 16.1 | 0.00 | 0.00 | 0.00 | 24 | 1013.5 |
| 20260507101205 | 26 | 333 | 6.4 | 14.5 | 0.00 | 0.00 | 0.00 | 26 | 1013.2 |
| 20260507100705 | 26 | 300 | 4.8 | 12.9 | 0.00 | 0.00 | 0.00 | 26 | 1013.3 |
| 20260507100205 | 26 | 281 | 6.4 | 12.9 | 0.00 | 0.00 | 0.00 | 26 | 1013.3 |
| 20260507100042 | 25 | 322 | 1.6 | 14.5 | 0.00 | 0.00 | 0.00 | 26 | 1013.6 |
| 20260507095705 | 25 | 309 | 4.8 | 16.1 | 0.00 | 0.00 | 0.00 | 27 | 1013.4 |
| 20260507095206 | 25 | 259 | 6.4 | 16.1 | 0.00 | 0.00 | 0.00 | 28 | 1013.4 |
| 20260507094705 | 25 | 235 | 8.0 | 16.1 | 0.00 | 0.00 | 0.00 | 27 | 1013.4 |
| 20260507094636 | 25 | 13 | 4.8 | 16.1 | 0.00 | 0.00 | 0.00 | 27 | 1013.7 |
| 20260507094206 | 25 | 249 | 6.4 | 14.5 | 0.00 | 0.00 | 0.00 | 29 | 1013.4 |
| 20260507093705 | 25 | 317 | 4.8 | 12.9 | 0.00 | 0.00 | 0.00 | 29 | 1013.3 |
| 20260507093205 | 24 | 39 | 4.8 | 16.1 | 0.00 | 0.00 | 0.00 | 29 | 1013.4 |
| 20260507093035 | 23 | 22 | 3.2 | 12.9 | 0.00 | 0.00 | 0.00 | 29 | 1013.8 |
| 20260507092705 | 24 | 50 | 6.4 | 16.1 | 0.00 | 0.00 | 0.00 | 30 | 1013.4 |
| 20260507092206 | 24 | 176 | 6.4 | 16.1 | 0.00 | 0.00 | 0.00 | 30 | 1013.4 |
| 20260507091705 | 24 | 331 | 4.8 | 17.7 | 0.00 | 0.00 | 0.00 | 31 | 1013.4 |
| 20260507091530 | 23 | 311 | 1.6 | 12.9 | 0.00 | 0.00 | 0.00 | 29 | 1013.8 |
| 20260507091206 | 24 | 266 | 6.4 | 17.7 | 0.00 | 0.00 | 0.00 | 31 | 1013.5 |
| 20260507090706 | 23 | 259 | 8.0 | 17.7 | 0.00 | 0.00 | 0.00 | 31 | 1013.4 |
| 20260507090032 | 23 | 250 | 9.7 | 16.1 | 0.00 | 0.00 | 0.00 | 33 | 1013.8 |
| 20260507085706 | 23 | 306 | 9.7 | 17.7 | 0.00 | 0.00 | 0.00 | 33 | 1013.5 |
| 20260507085206 | 23 | 277 | 8.0 | 17.7 | 0.00 | 0.00 | 0.00 | 34 | 1013.5 |
| 20260507084705 | 22 | 263 | 9.7 | 17.7 | 0.00 | 0.00 | 0.00 | 36 | 1013.6 |
| 20260507084525 | 22 | 253 | 6.4 | 17.7 | 0.00 | 0.00 | 0.00 | 36 | 1013.9 |
| 20260507084205 | 22 | 272 | 8.0 | 17.7 | 0.00 | 0.00 | 0.00 | 37 | 1013.5 |
| 20260507083017 | 20 | 275 | 11.3 | 17.7 | 0.00 | 0.00 | 0.00 | 39 | 1014.0 |
| 20260507082705 | 21 | 237 | 8.0 | 20.9 | 0.00 | 0.00 | 0.00 | 41 | 1013.6 |
| 20260507082207 | 20 | 283 | 8.0 | 22.5 | 0.00 | 0.00 | 0.00 | 41 | 1013.6 |
| 20260507081705 | 20 | 272 | 11.3 | 22.5 | 0.00 | 0.00 | 0.00 | 43 | 1013.6 |
| 20260507081521 | 19 | 259 | 9.7 | 22.5 | 0.00 | 0.00 | 0.00 | 43 | 1014.0 |
| 20260507081205 | 20 | 271 | 12.9 | 22.5 | 0.00 | 0.00 | 0.00 | 43 | 1013.6 |
| 20260507080205 | 20 | 284 | 11.3 | 19.3 | 0.00 | 0.00 | 0.00 | 43 | 1013.5 |
| 20260507080008 | 19 | 244 | 9.7 | 19.3 | 0.00 | 0.00 | 0.00 | 43 | 1013.9 |
| 20260507075706 | 20 | 274 | 9.7 | 19.3 | 0.00 | 0.00 | 0.00 | 43 | 1013.5 |
| 20260507075205 | 20 | 271 | 11.3 | 19.3 | 0.00 | 0.00 | 0.00 | 45 | 1013.6 |
| 20260507074505 | 18 | 275 | 12.9 | 19.3 | 0.00 | 0.00 | 0.00 | 47 | 1013.9 |
| 20260507074205 | 18 | 288 | 9.7 | 19.3 | 0.00 | 0.00 | 0.00 | 48 | 1013.5 |
| 20260507073705 | 18 | 281 | 8.0 | 19.3 | 0.00 | 0.00 | 0.00 | 49 | 1013.6 |
| 20260507073205 | 18 | 255 | 8.0 | 22.5 | 0.00 | 0.00 | 0.00 | 51 | 1013.5 |
| 20260507073104 | 17 | 298 | 6.4 | 17.7 | 0.00 | 0.00 | 0.00 | 51 | 1013.8 |
| 20260507072206 | 16 | 279 | 11.3 | 27.4 | 0.00 | 0.00 | 0.00 | 54 | 1013.5 |
| 20260507071705 | 16 | 252 | 12.9 | 27.4 | 0.00 | 0.00 | 0.00 | 54 | 1013.4 |
| 20260507071557 | 16 | 313 | 9.7 | 27.4 | 0.00 | 0.00 | 0.00 | 55 | 1013.7 |
| 20260507071205 | 16 | 253 | 14.5 | 24.1 | 0.00 | 0.00 | 0.00 | 55 | 1013.4 |
| 20260507070205 | 15 | 342 | 14.5 | 29.0 | 0.00 | 0.00 | 0.00 | 57 | 1013.4 |
| 20260507070058 | 15 | 313 | 12.9 | 24.1 | 0.00 | 0.00 | 0.00 | 57 | 1013.8 |
| 20260507065704 | 15 | 265 | 14.5 | 29.0 | 0.00 | 0.00 | 0.00 | 58 | 1013.5 |
| 20260507065207 | 15 | 248 | 14.5 | 22.5 | 0.00 | 0.00 | 0.00 | 58 | 1013.4 |
| 20260507064705 | 15 | 276 | 12.9 | 22.5 | 0.00 | 0.00 | 0.00 | 59 | 1013.5 |
| 20260507064548 | 14 | 285 | 11.3 | 24.1 | 0.00 | 0.00 | 0.00 | 59 | 1013.8 |
| 20260507063048 | 13 | 286 | 16.1 | 22.5 | 0.00 | 0.00 | 0.00 | 61 | 1013.9 |
| 20260507062705 | 13 | 305 | 14.5 | 22.5 | 0.00 | 0.00 | 0.00 | 62 | 1013.5 |
| 20260507061705 | 13 | 270 | 11.3 | 20.9 | 0.00 | 0.00 | 0.00 | 64 | 1013.4 |
| 20260507061541 | 12 | 292 | 11.3 | 20.9 | 0.00 | 0.00 | 0.00 | 65 | 1013.8 |
| 20260507061205 | 12 | 290 | 11.3 | 19.3 | 0.00 | 0.00 | 0.00 | 65 | 1013.5 |
| 20260507060049 | 12 | 261 | 9.7 | 17.7 | 0.00 | 0.00 | 0.00 | 67 | 1013.9 |
| 20260507055705 | 12 | 248 | 8.0 | 16.1 | 0.00 | 0.00 | 0.00 | 67 | 1013.6 |
| 20260507054705 | 11 | 283 | 9.7 | 16.1 | 0.00 | 0.00 | 0.00 | 67 | 1013.7 |
| 20260507054538 | 11 | 269 | 9.7 | 16.1 | 0.00 | 0.00 | 0.00 | 68 | 1014.0 |
| 20260507054206 | 11 | 254 | 9.7 | 14.5 | 0.00 | 0.00 | 0.00 | 68 | 1013.7 |
| 20260507053705 | 11 | 289 | 8.0 | 14.5 | 0.00 | 0.00 | 0.00 | 68 | 1013.7 |
| 20260507053026 | 10 | 263 | 8.0 | 14.5 | 0.00 | 0.00 | 0.00 | 68 | 1014.0 |
| 20260507052705 | 10 | 242 | 8.0 | 16.1 | 0.00 | 0.00 | 0.00 | 68 | 1013.6 |
| 20260507052205 | 10 | 240 | 9.7 | 16.1 | 0.00 | 0.00 | 0.00 | 68 | 1013.6 |
| 20260507051705 | 10 | 287 | 9.7 | 16.1 | 0.00 | 0.00 | 0.00 | 68 | 1013.6 |
| 20260507051522 | 10 | 280 | 9.7 | 16.1 | 0.00 | 0.00 | 0.00 | 68 | 1013.9 |
| 20260507051205 | 10 | 275 | 9.7 | 14.5 | 0.00 | 0.00 | 0.00 | 68 | 1013.5 |
| 20260507050705 | 10 | 269 | 9.7 | 16.1 | 0.00 | 0.00 | 0.00 | 68 | 1013.4 |
| 20260507050205 | 10 | 265 | 8.0 | 16.1 | 0.00 | 0.00 | 0.00 | 68 | 1013.4 |
| 20260507050019 | 10 | 246 | 8.0 | 16.1 | 0.00 | 0.00 | 0.00 | 68 | 1013.7 |
| 20260507045705 | 10 | 282 | 8.0 | 16.1 | 0.00 | 0.00 | 0.00 | 68 | 1013.3 |
| 20260507044705 | 10 | 286 | 9.7 | 16.1 | 0.00 | 0.00 | 0.00 | 68 | 1013.3 |
| 20260507044535 | 10 | 298 | 8.0 | 16.1 | 0.00 | 0.00 | 0.00 | 67 | 1013.6 |
| 20260507044205 | 10 | 273 | 8.0 | 14.5 | 0.00 | 0.00 | 0.00 | 67 | 1013.2 |
| 20260507043705 | 10 | 272 | 8.0 | 12.9 | 0.00 | 0.00 | 0.00 | 67 | 1013.2 |
| 20260507043206 | 10 | 290 | 8.0 | 12.9 | 0.00 | 0.00 | 0.00 | 67 | 1013.3 |
| 20260507043014 | 10 | 285 | 6.4 | 12.9 | 0.00 | 0.00 | 0.00 | 67 | 1013.6 |
| 20260507042705 | 10 | 274 | 6.4 | 12.9 | 0.00 | 0.00 | 0.00 | 67 | 1013.3 |
| 20260507042206 | 10 | 254 | 6.4 | 12.9 | 0.00 | 0.00 | 0.00 | 67 | 1013.3 |
| 20260507041705 | 10 | 272 | 8.0 | 14.5 | 0.00 | 0.00 | 0.00 | 67 | 1013.3 |
| 20260507041512 | 10 | 309 | 4.8 | 12.9 | 0.00 | 0.00 | 0.00 | 67 | 1013.6 |
| 20260507041205 | 10 | 287 | 9.7 | 14.5 | 0.00 | 0.00 | 0.00 | 67 | 1013.2 |
| 20260507040705 | 10 | 258 | 9.7 | 17.7 | 0.00 | 0.00 | 0.00 | 67 | 1013.2 |
| 20260507040206 | 10 | 264 | 9.7 | 17.7 | 0.00 | 0.00 | 0.00 | 67 | 1013.1 |
| 20260507040010 | 10 | 286 | 8.0 | 17.7 | 0.00 | 0.00 | 0.00 | 67 | 1013.4 |
| 20260507035705 | 10 | 237 | 9.7 | 17.7 | 0.00 | 0.00 | 0.00 | 67 | 1013.2 |
| 20260507035206 | 10 | 252 | 9.7 | 16.1 | 0.00 | 0.00 | 0.00 | 67 | 1013.1 |
| 20260507034507 | 10 | 285 | 9.7 | 16.1 | 0.00 | 0.00 | 0.00 | 67 | 1013.4 |
| 20260507034205 | 10 | 277 | 8.0 | 16.1 | 0.00 | 0.00 | 0.00 | 67 | 1013.1 |
| 20260507033705 | 11 | 251 | 8.0 | 17.7 | 0.00 | 0.00 | 0.00 | 67 | 1013.0 |
| 20260507033206 | 11 | 262 | 8.0 | 22.5 | 0.00 | 0.00 | 0.00 | 67 | 1013.0 |
| 20260507033006 | 10 | 259 | 8.0 | 17.7 | 0.00 | 0.00 | 0.00 | 67 | 1013.3 |
| 20260507032705 | 11 | 259 | 8.0 | 22.5 | 0.00 | 0.00 | 0.00 | 67 | 1013.0 |
| 20260507032205 | 11 | 241 | 9.7 | 22.5 | 0.00 | 0.00 | 0.00 | 67 | 1013.0 |
| 20260507031706 | 11 | 302 | 11.3 | 17.7 | 0.00 | 0.00 | 0.00 | 67 | 1012.9 |
| 20260507031504 | 10 | 287 | 9.7 | 17.7 | 0.00 | 0.00 | 0.00 | 67 | 1013.2 |
| 20260507031206 | 11 | 286 | 11.3 | 17.7 | 0.00 | 0.00 | 0.00 | 67 | 1012.9 |
| 20260507030705 | 11 | 295 | 12.9 | 19.3 | 0.00 | 0.00 | 0.00 | 67 | 1012.9 |
| 20260507030206 | 11 | 273 | 11.3 | 19.3 | 0.00 | 0.00 | 0.00 | 66 | 1012.9 |
| 20260507030002 | 11 | 293 | 11.3 | 19.3 | 0.00 | 0.00 | 0.00 | 66 | 1013.2 |
| 20260507025705 | 11 | 269 | 12.9 | 19.3 | 0.00 | 0.00 | 0.00 | 66 | 1012.9 |
| 20260507025206 | 11 | 312 | 12.9 | 19.3 | 0.00 | 0.00 | 0.00 | 66 | 1012.9 |
| 20260507024705 | 11 | 251 | 12.9 | 19.3 | 0.00 | 0.00 | 0.00 | 66 | 1013.0 |
| 20260507024600 | 11 | 286 | 11.3 | 19.3 | 0.00 | 0.00 | 0.00 | 66 | 1013.3 |
| 20260507024205 | 11 | 268 | 9.7 | 16.1 | 0.00 | 0.00 | 0.00 | 66 | 1013.0 |
| 20260507023705 | 11 | 257 | 8.0 | 16.1 | 0.00 | 0.00 | 0.00 | 66 | 1013.1 |
| 20260507023205 | 11 | 244 | 8.0 | 16.1 | 0.00 | 0.00 | 0.00 | 66 | 1013.1 |
| 20260507023057 | 11 | 266 | 6.4 | 16.1 | 0.00 | 0.00 | 0.00 | 66 | 1013.4 |
| 20260507022705 | 11 | 280 | 8.0 | 14.5 | 0.00 | 0.00 | 0.00 | 66 | 1013.1 |
| 20260507022206 | 11 | 269 | 8.0 | 14.5 | 0.00 | 0.00 | 0.00 | 66 | 1013.1 |
| 20260507021705 | 11 | 256 | 8.0 | 12.9 | 0.00 | 0.00 | 0.00 | 66 | 1013.1 |
| 20260507021557 | 11 | 257 | 4.8 | 12.9 | 0.00 | 0.00 | 0.00 | 66 | 1013.4 |
| 20260507021225 | 11 | 248 | 9.7 | 14.5 | 0.00 | 0.00 | 0.00 | 66 | 1013.1 |
| 20260507020705 | 11 | 281 | 8.0 | 14.5 | 0.00 | 0.00 | 0.00 | 66 | 1013.1 |
| 20260507020053 | 11 | 275 | 6.4 | 14.5 | 0.00 | 0.00 | 0.00 | 66 | 1013.6 |
| 20260507015205 | 11 | 287 | 6.4 | 9.7 | 0.00 | 0.00 | 0.00 | 66 | 1013.2 |
| 20260507014705 | 11 | 273 | 4.8 | 9.7 | 0.00 | 0.00 | 0.00 | 66 | 1013.3 |
| 20260507014554 | 11 | 273 | 3.2 | 6.4 | 0.00 | 0.00 | 0.00 | 66 | 1013.6 |
| 20260507014233 | 11 | 250 | 3.2 | 9.7 | 0.00 | 0.00 | 0.00 | 66 | 1013.2 |
| 20260507013205 | 11 | 238 | 3.2 | 6.4 | 0.00 | 0.00 | 0.00 | 66 | 1013.4 |
| 20260507013058 | 11 | 253 | 3.2 | 6.4 | 0.00 | 0.00 | 0.00 | 66 | 1013.7 |
| 20260507012730 | 11 | 261 | 3.2 | 9.7 | 0.00 | 0.00 | 0.00 | 66 | 1013.4 |
| 20260507012206 | 11 | 257 | 4.8 | 9.7 | 0.00 | 0.00 | 0.00 | 66 | 1013.4 |
| 20260507011705 | 11 | 263 | 4.8 | 11.3 | 0.00 | 0.00 | 0.00 | 66 | 1013.4 |
| 20260507011547 | 11 | 270 | 6.4 | 9.7 | 0.00 | 0.00 | 0.00 | 66 | 1013.8 |
| 20260507011205 | 12 | 251 | 6.4 | 11.3 | 0.00 | 0.00 | 0.00 | 66 | 1013.4 |
| 20260507010205 | 12 | 263 | 6.4 | 11.3 | 0.00 | 0.00 | 0.00 | 66 | 1013.5 |
| 20260507010046 | 11 | 271 | 6.4 | 11.3 | 0.00 | 0.00 | 0.00 | 66 | 1013.9 |
| 20260507005705 | 12 | 254 | 6.4 | 11.3 | 0.00 | 0.00 | 0.00 | 66 | 1013.5 |
| 20260507005206 | 12 | 268 | 6.4 | 9.7 | 0.00 | 0.00 | 0.00 | 66 | 1013.6 |
| 20260507004705 | 12 | 258 | 4.8 | 9.7 | 0.00 | 0.00 | 0.00 | 66 | 1013.6 |
| 20260507004545 | 11 | 254 | 4.8 | 9.7 | 0.00 | 0.00 | 0.00 | 66 | 1014.0 |
| 20260507004205 | 12 | 246 | 4.8 | 6.4 | 0.00 | 0.00 | 0.00 | 66 | 1013.6 |
| 20260507003205 | 12 | 251 | 3.2 | 6.4 | 0.00 | 0.00 | 0.00 | 65 | 1013.7 |
| 20260507003045 | 12 | 225 | 3.2 | 6.4 | 0.00 | 0.00 | 0.00 | 66 | 1014.1 |
| 20260507002705 | 12 | 252 | 3.2 | 4.8 | 0.00 | 0.00 | 0.00 | 65 | 1013.7 |
| 20260507002206 | 12 | 260 | 3.2 | 4.8 | 0.00 | 0.00 | 0.00 | 66 | 1013.7 |
| 20260507001705 | 12 | 239 | 1.6 | 3.2 | 0.00 | 0.00 | 0.00 | 66 | 1013.7 |
| 20260507001543 | 12 | 226 | 1.6 | 3.2 | 0.00 | 0.00 | 0.00 | 66 | 1014.0 |
| 20260507001224 | 12 | 226 | 0.0 | 4.8 | 0.00 | 0.00 | 0.00 | 66 | 1013.7 |
| 20260507000705 | 12 | 225 | 0.0 | 4.8 | 0.00 | 0.00 | 0.00 | 66 | 1013.8 |
| 20260507000205 | 12 | 225 | 1.6 | 4.8 | 0.00 | 0.00 | 0.00 | 66 | 1013.8 |
| 20260507000043 | 12 | 225 | 0.0 | 4.8 | 0.00 | 0.00 | 0.00 | 66 | 1014.2 |
| 20260506235206 | 12 | 226 | 1.6 | 8.0 | 0.00 | 0.00 | 0.00 | 65 | 1013.7 |
| 20260506234705 | 12 | 226 | 1.6 | 4.8 | 0.00 | 0.00 | 0.00 | 65 | 1013.8 |
| 20260506234541 | 12 | 225 | 1.6 | 8.0 | 0.00 | 0.00 | 0.00 | 65 | 1014.1 |
| 20260506234205 | 12 | 227 | 1.6 | 9.7 | 0.00 | 0.00 | 0.00 | 65 | 1013.8 |
| 20260506233727 | 12 | 250 | 1.6 | 9.7 | 0.00 | 0.00 | 0.00 | 65 | 1013.8 |
| 20260506233205 | 13 | 251 | 3.2 | 9.7 | 0.00 | 0.00 | 0.00 | 65 | 1013.7 |
| 20260506233037 | 12 | 228 | 1.6 | 9.7 | 0.00 | 0.00 | 0.00 | 65 | 1014.1 |
| 20260506232707 | 13 | 269 | 3.2 | 12.9 | 0.00 | 0.00 | 0.00 | 65 | 1013.6 |
| 20260506232205 | 13 | 236 | 4.8 | 12.9 | 0.00 | 0.00 | 0.00 | 65 | 1013.6 |
| 20260506231706 | 13 | 277 | 4.8 | 12.9 | 0.00 | 0.00 | 0.00 | 65 | 1013.7 |
| 20260506231538 | 12 | 276 | 3.2 | 12.9 | 0.00 | 0.00 | 0.00 | 65 | 1014.0 |
| 20260506231205 | 13 | 263 | 8.0 | 12.9 | 0.00 | 0.00 | 0.00 | 65 | 1013.7 |
| 20260506230206 | 13 | 263 | 6.4 | 12.9 | 0.00 | 0.00 | 0.00 | 65 | 1013.7 |
| 20260506230034 | 12 | 261 | 8.0 | 12.9 | 0.00 | 0.00 | 0.00 | 65 | 1014.0 |
| 20260506225705 | 13 | 286 | 6.4 | 12.9 | 0.00 | 0.00 | 0.00 | 64 | 1013.6 |
| 20260506224705 | 13 | 269 | 4.8 | 9.7 | 0.00 | 0.00 | 0.00 | 64 | 1013.6 |
| 20260506224532 | 12 | 273 | 4.8 | 11.3 | 0.00 | 0.00 | 0.00 | 64 | 1013.9 |
| 20260506224206 | 13 | 305 | 3.2 | 9.7 | 0.00 | 0.00 | 0.00 | 64 | 1013.6 |
| 20260506223706 | 13 | 288 | 1.6 | 9.7 | 0.00 | 0.00 | 0.00 | 64 | 1013.6 |
| 20260506223205 | 13 | 298 | 1.6 | 8.0 | 0.00 | 0.00 | 0.00 | 64 | 1013.6 |
| 20260506223031 | 13 | 254 | 3.2 | 8.0 | 0.00 | 0.00 | 0.00 | 64 | 1013.9 |
| 20260506222706 | 13 | 210 | 1.6 | 9.7 | 0.00 | 0.00 | 0.00 | 64 | 1013.5 |
| 20260506222206 | 13 | 244 | 3.2 | 9.7 | 0.00 | 0.00 | 0.00 | 64 | 1013.5 |
| 20260506221705 | 13 | 221 | 3.2 | 9.7 | 0.00 | 0.00 | 0.00 | 64 | 1013.5 |
| 20260506221530 | 13 | 270 | 3.2 | 9.7 | 0.00 | 0.00 | 0.00 | 64 | 1013.8 |
| 20260506220205 | 13 | 226 | 1.6 | 6.4 | 0.00 | 0.00 | 0.00 | 64 | 1013.4 |
| 20260506220031 | 13 | 248 | 1.6 | 6.4 | 0.00 | 0.00 | 0.00 | 64 | 1013.7 |
| 20260506215206 | 13 | 225 | 3.2 | 11.3 | 0.00 | 0.00 | 0.00 | 64 | 1013.4 |
| 20260506214527 | 13 | 265 | 1.6 | 11.3 | 0.00 | 0.00 | 0.00 | 64 | 1013.8 |
| 20260506214206 | 13 | 250 | 1.6 | 6.4 | 0.00 | 0.00 | 0.00 | 64 | 1013.4 |
| 20260506213705 | 13 | 260 | 1.6 | 6.4 | 0.00 | 0.00 | 0.00 | 64 | 1013.4 |
| 20260506213026 | 13 | 258 | 1.6 | 6.4 | 0.00 | 0.00 | 0.00 | 64 | 1013.7 |
| 20260506212705 | 13 | 255 | 3.2 | 9.7 | 0.00 | 0.00 | 0.00 | 64 | 1013.4 |
| 20260506212206 | 13 | 275 | 3.2 | 9.7 | 0.00 | 0.00 | 0.00 | 64 | 1013.4 |
| 20260506211704 | 13 | 272 | 4.8 | 9.7 | 0.00 | 0.00 | 0.00 | 64 | 1013.4 |
| 20260506211527 | 13 | 264 | 3.2 | 9.7 | 0.00 | 0.00 | 0.00 | 64 | 1013.8 |
| 20260506211206 | 13 | 259 | 4.8 | 9.7 | 0.00 | 0.00 | 0.00 | 64 | 1013.4 |
| 20260506210706 | 13 | 263 | 4.8 | 6.4 | 0.00 | 0.00 | 0.00 | 63 | 1013.4 |
| 20260506210206 | 13 | 296 | 4.8 | 6.4 | 0.00 | 0.00 | 0.00 | 63 | 1013.4 |
| 20260506210025 | 13 | 270 | 3.2 | 6.4 | 0.00 | 0.00 | 0.00 | 63 | 1013.7 |
| 20260506204524 | 13 | 248 | 4.8 | 11.3 | 0.00 | 0.03 | 0.00 | 63 | 1013.7 |
| 20260506203706 | 14 | 277 | 6.4 | 16.1 | 0.00 | 0.00 | 0.00 | 63 | 1013.1 |
| 20260506203027 | 13 | 304 | 4.8 | 16.1 | 0.00 | 0.03 | 0.00 | 62 | 1013.4 |
| 20260506202706 | 14 | 267 | 8.0 | 16.1 | 0.00 | 0.00 | 0.00 | 62 | 1013.0 |
| 20260506202206 | 14 | 267 | 6.4 | 11.3 | 0.00 | 0.00 | 0.00 | 62 | 1013.0 |
| 20260506201706 | 14 | 281 | 4.8 | 14.5 | 0.00 | 0.00 | 0.00 | 61 | 1012.9 |
| 20260506201521 | 13 | 301 | 4.8 | 11.3 | 0.00 | 0.03 | 0.00 | 61 | 1013.2 |
| 20260506201206 | 14 | 257 | 6.4 | 14.5 | 0.00 | 0.00 | 0.00 | 61 | 1012.9 |
| 20260506200705 | 14 | 250 | 6.4 | 12.9 | 0.00 | 0.00 | 0.00 | 61 | 1012.9 |
| 20260506200205 | 14 | 265 | 6.4 | 14.5 | 0.00 | 0.03 | 0.00 | 60 | 1012.9 |
| 20260506200019 | 14 | 284 | 4.8 | 11.3 | 0.00 | 0.03 | 0.00 | 60 | 1013.2 |
| 20260506195705 | 15 | 279 | 6.4 | 14.5 | 0.00 | 0.03 | 0.00 | 60 | 1012.8 |
| 20260506195206 | 15 | 281 | 6.4 | 14.5 | 0.00 | 0.03 | 0.00 | 60 | 1012.7 |
| 20260506194733 | 15 | 261 | 6.4 | 14.5 | 0.00 | 0.03 | 0.00 | 60 | 1012.6 |
| 20260506194517 | 15 | 255 | 4.8 | 12.9 | 0.00 | 0.05 | 0.00 | 60 | 1012.9 |
| 20260506194206 | 15 | 252 | 6.4 | 14.5 | 0.00 | 0.03 | 0.00 | 59 | 1012.5 |
| 20260506193706 | 15 | 251 | 6.4 | 14.5 | 0.00 | 0.03 | 0.00 | 59 | 1012.4 |
| 20260506193205 | 15 | 269 | 8.0 | 16.1 | 0.00 | 0.03 | 0.00 | 58 | 1012.4 |
| 20260506193016 | 15 | 213 | 6.4 | 14.5 | 0.00 | 0.05 | 0.00 | 58 | 1012.8 |
| 20260506191706 | 16 | 254 | 8.0 | 20.9 | 0.00 | 0.03 | 0.00 | 54 | 1012.4 |
| 20260506191515 | 16 | 269 | 4.8 | 17.7 | 0.00 | 0.05 | 0.00 | 54 | 1012.7 |
| 20260506191206 | 17 | 225 | 8.0 | 27.4 | 0.00 | 0.05 | 0.00 | 52 | 1012.3 |
| 20260506190705 | 17 | 285 | 11.3 | 27.4 | 0.00 | 0.05 | 0.00 | 50 | 1012.3 |
| 20260506190012 | 17 | 244 | 14.5 | 27.4 | 0.00 | 0.05 | 0.00 | 46 | 1012.5 |
| 20260506185705 | 18 | 288 | 12.9 | 22.5 | 0.00 | 0.05 | 0.00 | 46 | 1012.1 |
| 20260506185206 | 18 | 273 | 11.3 | 17.7 | 0.00 | 0.05 | 0.00 | 45 | 1011.9 |
| 20260506184705 | 18 | 289 | 11.3 | 17.7 | 0.00 | 0.05 | 0.00 | 42 | 1011.7 |
| 20260506184509 | 18 | 275 | 11.3 | 17.7 | 0.00 | 0.05 | 0.00 | 41 | 1011.9 |
| 20260506184205 | 18 | 262 | 9.7 | 19.3 | 0.00 | 0.05 | 0.00 | 41 | 1011.5 |
| 20260506183705 | 18 | 250 | 9.7 | 19.3 | 0.00 | 0.05 | 0.00 | 40 | 1011.4 |
| 20260506183205 | 19 | 255 | 9.7 | 19.3 | 0.00 | 0.05 | 0.00 | 40 | 1011.3 |
| 20260506183011 | 18 | 294 | 9.7 | 19.3 | 0.00 | 0.05 | 0.00 | 40 | 1011.6 |
| 20260506182705 | 19 | 273 | 8.0 | 17.7 | 0.00 | 0.05 | 0.00 | 40 | 1011.3 |
| 20260506182206 | 19 | 279 | 8.0 | 20.9 | 0.00 | 0.05 | 0.00 | 41 | 1011.2 |
| 20260506181705 | 19 | 281 | 9.7 | 20.9 | 0.00 | 0.05 | 0.00 | 40 | 1011.2 |
| 20260506181508 | 18 | 244 | 6.4 | 20.9 | 0.00 | 0.05 | 0.00 | 40 | 1011.5 |
| 20260506181205 | 19 | 320 | 9.7 | 19.3 | 0.00 | 0.05 | 0.00 | 40 | 1011.1 |
| 20260506180205 | 19 | 289 | 9.7 | 17.7 | 0.00 | 0.05 | 0.00 | 39 | 1010.8 |
| 20260506180008 | 19 | 329 | 6.4 | 19.3 | 0.00 | 0.05 | 0.00 | 39 | 1011.1 |
| 20260506175705 | 20 | 259 | 9.7 | 20.9 | 0.00 | 0.05 | 0.00 | 38 | 1010.6 |
| 20260506175206 | 20 | 277 | 9.7 | 20.9 | 0.00 | 0.05 | 0.00 | 38 | 1010.6 |
| 20260506174705 | 20 | 311 | 8.0 | 19.3 | 0.00 | 0.05 | 0.00 | 38 | 1010.6 |
| 20260506174507 | 19 | 342 | 11.3 | 19.3 | 0.00 | 0.05 | 0.00 | 38 | 1010.9 |
| 20260506174205 | 20 | 345 | 3.2 | 9.7 | 0.00 | 0.05 | 0.00 | 39 | 1010.5 |
| 20260506173706 | 20 | 284 | 1.6 | 14.5 | 0.00 | 0.05 | 0.00 | 39 | 1010.5 |
| 20260506173205 | 20 | 219 | 3.2 | 14.5 | 0.00 | 0.05 | 0.00 | 39 | 1010.5 |
| 20260506173008 | 20 | 301 | 0.0 | 14.5 | 0.00 | 0.05 | 0.00 | 40 | 1010.7 |
| 20260506172206 | 20 | 147 | 1.6 | 8.0 | 0.00 | 0.05 | 0.00 | 42 | 1010.3 |
| 20260506171705 | 21 | 30 | 1.6 | 14.5 | 0.00 | 0.05 | 0.00 | 43 | 1010.2 |